{"data":{"norad_id":60280,"epoch":"2026-09-21T03:37:03.339840Z","epoch_age_seconds":125222,"freshness":"FRESH","line1":"1 60280U 24132C   26264.15073310  .00004678  00000+0  14949-3 0  9992","line2":"2 60280  53.1573 222.5986 0002417  87.5959 272.5320 15.34404478121514","mean_motion":15.34404478,"eccentricity":0.0002417,"inclination_deg":53.1573,"raan_deg":222.5986,"arg_perigee_deg":87.5959,"mean_anomaly_deg":272.532,"bstar":0.00014949,"rev_number":12151,"period_min":93.847484196406,"perigee_km":461.03650281063,"apogee_km":464.34335854892,"semimajor_km":6840.8269306798,"source":"CELESTRAK","updated_at":"2026-09-22T09:00:49.191469Z"}}